KC5AYO Weather Reports


Display with metric or nautical units.
time (UTC)temp
F
wind
direction
speed
MPH
gust
MPH
rain 1hr
in
rain 24hr
in
rain mn
in
humidity
%
barometer
mb
20260903143539 84 124 0.0 2.0 0.00 0.00 0.00 72 1015.1
20260903143041 84 164 0.0 1.0 0.00 0.00 0.00 75 1015.0
20260903142539 84 166 0.0 2.0 0.00 0.00 0.00 74 1015.0
20260903142035 83 140 0.0 2.0 0.00 0.00 0.00 77 1015.0
20260903141534 83 151 0.0 2.0 0.00 0.00 0.00 76 1015.0
20260903141032 82 140 0.0 2.0 0.00 0.00 0.00 79 1015.0
20260903140531 82 165 0.0 2.0 0.00 0.00 0.00 79 1015.0
20260903140030 81 263 0.0 2.0 0.00 0.00 0.00 80 1015.1
20260903135528 81 288 0.0 2.0 0.00 0.00 0.00 83 1015.1
20260903135028 80 265 0.0 0.0 0.00 0.00 0.00 82 1015.1
20260903134528 80 178 0.0 0.0 0.00 0.00 0.00 83 1015.2
20260903134024 80 206 0.0 0.0 0.00 0.00 0.00 84 1015.2
20260903133524 79 119 0.0 0.0 0.00 0.00 0.00 84 1015.2
20260903133023 79 220 0.0 0.0 0.00 0.00 0.00 84 1015.3
20260903132521 78 254 0.0 0.0 0.00 0.00 0.00 85 1015.3
20260903132020 78 254 0.0 2.0 0.00 0.00 0.00 86 1015.3
20260903131523 78 254 0.0 2.0 0.00 0.00 0.00 86 1015.4
20260903131020 77 267 0.0 0.0 0.00 0.00 0.00 87 1015.4
20260903130522 77 194 0.0 0.0 0.00 0.00 0.00 87 1015.5
20260903130018 76 194 0.0 0.0 0.00 0.00 0.00 88 1015.5
20260903125518 76 194 0.0 0.0 0.00 0.00 0.00 88 1015.6
20260903125018 76 194 0.0 0.0 0.00 0.00 0.00 89 1015.5
20260903124531 76 223 0.0 0.0 0.00 0.00 0.00 89 1015.5
20260903124016 76 223 0.0 0.0 0.00 0.00 0.00 89 1015.5
20260903123516 75 223 0.0 0.0 0.00 0.00 0.00 90 1015.5
20260903123016 75 223 0.0 0.0 0.00 0.00 0.00 90 1015.7
20260903122517 75 232 0.0 0.0 0.00 0.00 0.00 91 1015.6
20260903122015 75 232 0.0 0.0 0.00 0.00 0.00 92 1015.7
20260903121533 74 232 0.0 0.0 0.00 0.00 0.00 92 1015.6
20260903121017 74 232 0.0 0.0 0.00 0.00 0.00 92 1015.5
20260903120513 74 232 0.0 0.0 0.00 0.00 0.00 92 1015.4
20260903120012 74 232 0.0 0.0 0.00 0.00 0.00 92 1015.4
20260903115511 74 232 0.0 0.0 0.00 0.00 0.00 92 1015.3
20260903115011 74 232 0.0 0.0 0.00 0.00 0.00 92 1015.4
20260903114511 74 232 0.0 0.0 0.00 0.00 0.00 92 1015.4
20260903114010 74 232 0.0 0.0 0.00 0.00 0.00 92 1015.3
20260903113509 74 232 0.0 0.0 0.00 0.00 0.00 92 1015.2
20260903113015 74 232 0.0 0.0 0.00 0.00 0.00 91 1015.2
20260903112509 74 232 0.0 2.0 0.00 0.00 0.00 92 1015.1
20260903112008 74 153 0.0 2.0 0.00 0.00 0.00 91 1015.1
20260903111508 74 148 0.0 0.0 0.00 0.00 0.00 91 1015.0
20260903111007 74 148 0.0 0.0 0.00 0.00 0.00 90 1015.0
20260903110508 74 148 0.0 0.0 0.00 0.00 0.00 90 1014.9
20260903110006 74 224 0.0 0.0 0.00 0.00 0.00 90 1014.9
20260903105505 74 226 0.0 0.0 0.00 0.00 0.00 90 1014.9
20260903105006 74 225 0.0 0.0 0.00 0.00 0.00 90 1014.8
20260903104505 74 217 0.0 0.0 0.00 0.00 0.00 90 1014.7
20260903104005 74 185 0.0 0.0 0.00 0.00 0.00 90 1014.8
20260903103506 74 204 0.0 0.0 0.00 0.00 0.00 90 1014.7
20260903103004 74 204 0.0 0.0 0.00 0.00 0.00 91 1014.6
20260903102503 74 204 0.0 0.0 0.00 0.00 0.00 90 1014.6
20260903102004 74 204 0.0 0.0 0.00 0.00 0.00 91 1014.5
20260903101502 74 204 0.0 0.0 0.00 0.00 0.00 90 1014.6
20260903101002 74 204 0.0 0.0 0.00 0.00 0.00 91 1014.6
20260903100502 74 204 0.0 0.0 0.00 0.00 0.00 90 1014.6
20260903100005 74 204 0.0 0.0 0.00 0.00 0.00 90 1014.6
20260903095504 74 204 0.0 0.0 0.00 0.00 0.00 90 1014.5
20260903095003 75 204 0.0 0.0 0.00 0.00 0.00 90 1014.5
20260903094610 75 204 0.0 0.0 0.00 0.00 0.00 90 1014.6
20260903094103 75 204 0.0 0.0 0.00 0.00 0.00 90 1014.5
20260903093601 75 204 0.0 0.0 0.00 0.00 0.00 90 1014.6
20260903093103 75 204 0.0 0.0 0.00 0.00 0.00 90 1014.5
20260903092559 75 204 0.0 0.0 0.00 0.00 0.00 90 1014.6
20260903092059 75 204 0.0 0.0 0.00 0.00 0.00 90 1014.6
20260903091605 75 204 0.0 0.0 0.00 0.00 0.00 90 1014.5
20260903091057 75 204 0.0 0.0 0.00 0.00 0.00 89 1014.6
20260903090556 75 204 0.0 2.0 0.00 0.00 0.00 89 1014.5
20260903090057 75 204 0.0 2.0 0.00 0.00 0.00 89 1014.6
20260903085556 76 204 0.0 2.0 0.00 0.00 0.00 89 1014.5
20260903085055 76 204 0.0 0.0 0.00 0.00 0.00 89 1014.6
20260903084555 76 204 0.0 0.0 0.00 0.00 0.00 89 1014.5
20260903084054 76 204 0.0 2.0 0.00 0.00 0.00 89 1014.6
20260903083554 76 204 0.0 1.0 0.00 0.00 0.00 89 1014.4
20260903083059 76 213 0.0 2.0 0.00 0.00 0.00 88 1014.5
20260903082553 76 213 0.0 2.0 0.00 0.00 0.00 88 1014.6
20260903082053 76 169 0.0 2.0 0.00 0.00 0.00 88 1014.6
20260903081553 76 190 0.0 0.0 0.00 0.00 0.00 87 1014.6
20260903081052 76 190 0.0 0.0 0.00 0.00 0.00 87 1014.6
20260903080552 76 190 0.0 0.0 0.00 0.00 0.00 87 1014.6
20260903080050 77 191 0.0 0.0 0.00 0.00 0.00 87 1014.5
20260903075549 77 192 0.0 0.0 0.00 0.00 0.00 87 1014.5
20260903075053 77 192 0.0 0.0 0.00 0.00 0.00 87 1014.3
20260903074549 77 192 0.0 1.0 0.00 0.00 0.00 87 1014.4
20260903074049 77 192 0.0 1.0 0.00 0.00 0.00 87 1014.4
20260903073549 77 190 0.0 0.0 0.00 0.00 0.00 87 1014.3
20260903073108 77 190 0.0 0.0 0.00 0.00 0.00 87 1014.2
20260903072548 77 190 0.0 0.0 0.00 0.00 0.00 87 1014.3
20260903072048 77 190 0.0 1.0 0.00 0.00 0.00 87 1014.3
20260903071549 77 190 0.0 1.0 0.00 0.00 0.00 87 1014.2
20260903071047 77 190 0.0 0.0 0.00 0.00 0.00 87 1014.3
20260903070549 77 190 0.0 0.0 0.00 0.00 0.00 87 1014.2
20260903070047 77 190 0.0 0.0 0.00 0.00 0.00 88 1014.3
20260903065547 77 190 0.0 0.0 0.00 0.00 0.00 88 1014.1
20260903065046 77 190 0.0 0.0 0.00 0.00 0.00 88 1014.2
20260903064553 77 190 0.0 0.0 0.00 0.00 0.00 88 1014.3
20260903064047 77 190 0.0 2.0 0.00 0.00 0.00 88 1014.3
20260903063546 77 190 0.0 2.0 0.00 0.00 0.00 88 1014.2
20260903063046 77 190 0.0 0.0 0.00 0.00 0.00 88 1014.3
20260903062546 77 190 0.0 0.0 0.00 0.00 0.00 88 1014.3
20260903062044 77 190 0.0 0.0 0.00 0.00 0.00 88 1014.3
20260903061545 77 190 0.0 0.0 0.00 0.00 0.00 88 1014.2
20260903061044 77 190 0.0 0.0 0.00 0.00 0.00 88 1014.2
20260903060544 77 190 0.0 0.0 0.00 0.00 0.00 88 1014.3
20260903060043 77 190 0.0 0.0 0.00 0.00 0.00 87 1014.3
20260903055643 78 190 0.0 0.0 0.00 0.00 0.00 87 1014.2
20260903055045 78 190 0.0 0.0 0.00 0.00 0.00 87 1014.3
20260903054542 78 190 0.0 0.0 0.00 0.00 0.00 87 1014.3
20260903054041 78 190 0.0 0.0 0.00 0.00 0.00 86 1014.2
20260903053540 78 190 0.0 0.0 0.00 0.00 0.00 86 1014.2
20260903053045 78 190 0.0 0.0 0.00 0.00 0.00 87 1014.2
20260903052539 78 190 0.0 0.0 0.00 0.00 0.00 86 1014.2
20260903052039 78 190 0.0 0.0 0.00 0.00 0.00 86 1014.1
20260903051539 78 190 0.0 0.0 0.00 0.00 0.00 85 1014.1
20260903051038 78 190 0.0 0.0 0.00 0.00 0.00 86 1014.1
20260903050542 78 190 0.0 0.0 0.00 0.00 0.00 85 1014.1
20260903050037 79 190 0.0 0.0 0.00 0.00 0.00 85 1014.1
20260903045536 79 190 0.0 0.0 0.00 0.00 0.00 85 1014.1
20260903045038 78 190 0.0 0.0 0.00 0.00 0.00 86 1014.1
20260903044537 78 190 0.0 0.0 0.00 0.00 0.00 86 1014.0
20260903044039 78 190 0.0 0.0 0.00 0.00 0.00 86 1014.1
20260903043535 79 190 0.0 0.0 0.00 0.00 0.00 86 1014.0
20260903043045 79 190 0.0 0.0 0.00 0.00 0.00 86 1014.1
20260903042535 79 190 0.0 0.0 0.00 0.00 0.00 85 1014.0
20260903042035 79 190 0.0 0.0 0.00 0.00 0.00 85 1014.0
20260903041536 79 190 0.0 0.0 0.00 0.00 0.00 85 1014.0
20260903041034 79 190 0.0 0.0 0.00 0.00 0.00 86 1014.0
20260903040533 79 190 0.0 0.0 0.00 0.00 0.00 86 1014.0
20260903040032 79 190 0.0 0.0 0.00 0.00 0.00 86 1014.1
20260903035533 79 190 0.0 0.0 0.00 0.00 0.00 86 1014.0
20260903035032 79 190 0.0 0.0 0.00 0.00 0.00 86 1014.0
20260903034532 79 190 0.0 0.0 0.00 0.00 0.00 86 1014.1
20260903034031 79 190 0.0 0.0 0.00 0.00 0.00 86 1014.1
20260903033533 79 190 0.0 0.0 0.00 0.00 0.00 86 1014.1
20260903033031 79 190 0.0 0.0 0.00 0.00 0.00 86 1014.1
20260903032532 79 190 0.0 0.0 0.00 0.00 0.00 87 1014.0
20260903032035 79 190 0.0 0.0 0.00 0.00 0.00 87 1014.0
20260903031542 79 190 0.0 0.0 0.00 0.00 0.00 87 1014.0
20260903031031 80 190 0.0 0.0 0.00 0.00 0.00 88 1014.2
20260903030533 80 190 0.0 0.0 0.00 0.00 0.00 87 1014.1
20260903030031 80 190 0.0 0.0 0.00 0.00 0.00 86 1014.1
20260903025532 80 190 0.0 0.0 0.00 0.00 0.00 86 1014.0
20260903025030 80 190 0.0 0.0 0.00 0.00 0.00 86 1014.0
20260903024530 80 190 0.0 0.0 0.00 0.00 0.00 86 1014.1
20260903024031 80 190 0.0 0.0 0.00 0.00 0.00 85 1014.1
20260903023533 80 190 0.0 0.0 0.00 0.00 0.00 85 1014.1
20260903023030 81 190 0.0 0.0 0.00 0.00 0.00 85 1014.2
20260903022530 81 190 0.0 0.0 0.00 0.00 0.00 84 1014.0
20260903022029 81 190 0.0 0.0 0.00 0.00 0.00 83 1014.1
20260903021529 81 190 0.0 0.0 0.00 0.00 0.00 83 1014.2
20260903021029 81 190 0.0 0.0 0.00 0.00 0.00 83 1014.2
20260903020529 81 190 0.0 0.0 0.00 0.00 0.00 83 1014.2
20260903020038 82 190 0.0 0.0 0.00 0.00 0.00 83 1014.2
20260903015530 82 190 0.0 0.0 0.00 0.00 0.00 82 1014.1
20260903015028 82 190 0.0 0.0 0.00 0.00 0.00 81 1014.2
20260903014528 82 190 0.0 0.0 0.00 0.00 0.00 81 1014.2
20260903014033 82 190 0.0 0.0 0.00 0.00 0.00 81 1014.1
20260903013529 82 190 0.0 0.0 0.00 0.00 0.00 80 1014.0
20260903013028 82 190 0.0 0.0 0.00 0.00 0.00 80 1014.1
20260903012527 83 190 0.0 0.0 0.00 0.00 0.00 79 1014.1
20260903012028 83 190 0.0 0.0 0.00 0.00 0.00 79 1013.9
20260903011528 83 190 0.0 0.0 0.00 0.00 0.00 79 1013.8
20260903011028 83 190 0.0 0.0 0.00 0.00 0.00 78 1013.8
20260903010527 83 190 0.0 0.0 0.00 0.00 0.00 77 1013.7
20260903010027 84 190 0.0 0.0 0.00 0.00 0.00 76 1013.7
20260903005527 84 190 0.0 0.0 0.00 0.00 0.00 76 1013.7
20260903005027 84 190 0.0 0.0 0.00 0.00 0.00 76 1013.6
20260903004527 84 190 0.0 0.0 0.00 0.00 0.00 76 1013.6
20260903004026 84 190 0.0 0.0 0.00 0.00 0.00 75 1013.6
20260903003526 85 190 0.0 0.0 0.00 0.00 0.00 75 1013.6
20260903003026 85 190 0.0 0.0 0.00 0.00 0.00 73 1013.6
20260903002530 85 190 0.0 0.0 0.00 0.00 0.00 73 1013.5
20260903002025 86 190 0.0 0.0 0.00 0.00 0.00 71 1013.6
20260903001525 86 190 0.0 0.0 0.00 0.00 0.00 71 1013.6
20260903001024 87 190 0.0 0.0 0.00 0.00 0.00 70 1013.6
20260903000524 87 190 0.0 2.0 0.00 0.00 0.00 69 1013.6
20260903000032 88 195 0.0 2.0 0.00 0.00 0.00 67 1013.6
20260902235524 88 206 0.0 2.0 0.00 0.00 0.00 68 1013.6
20260902235023 88 237 0.0 2.0 0.00 0.00 0.00 66 1013.6
20260902234527 89 247 0.0 2.0 0.00 0.00 0.00 65 1013.6
20260902234023 89 210 0.0 1.0 0.00 0.00 0.00 66 1013.6
20260902233622 89 157 0.0 0.0 0.00 0.00 0.00 66 1013.6
20260902233022 90 168 0.0 0.0 0.00 0.00 0.00 64 1013.6
20260902232524 90 168 0.0 0.0 0.00 0.00 0.00 63 1013.5
20260902232021 90 178 0.0 0.0 0.00 0.00 0.00 63 1013.6
20260902231524 91 135 0.0 0.0 0.00 0.00 0.00 59 1013.6
20260902231024 91 178 0.0 0.0 0.00 0.00 0.00 59 1013.7
20260902230521 91 155 0.0 0.0 0.00 0.00 0.00 59 1013.7
20260902230022 92 170 0.0 0.0 0.00 0.00 0.00 59 1013.7
20260902225521 92 172 0.0 1.0 0.00 0.00 0.00 59 1013.7
20260902225021 92 144 0.0 2.0 0.00 0.00 0.00 59 1013.6
20260902224521 92 202 0.0 2.0 0.00 0.00 0.00 58 1013.7
20260902224024 92 163 0.0 2.0 0.00 0.00 0.00 58 1013.8
20260902223520 92 314 0.0 2.0 0.00 0.00 0.00 60 1013.7
20260902223032 92 149 0.0 2.0 0.00 0.00 0.00 57 1013.8
20260902222519 93 282 0.0 2.0 0.00 0.00 0.00 57 1013.7
20260902222018 93 150 0.0 2.0 0.00 0.00 0.00 57 1013.8
20260902221521 93 249 0.0 2.0 0.00 0.00 0.00 57 1013.9
20260902221018 93 138 0.0 2.0 0.00 0.00 0.00 56 1013.9
20260902220518 93 159 0.0 2.0 0.00 0.00 0.00 55 1013.9
20260902220017 93 194 0.0 3.0 0.00 0.00 0.00 56 1013.9
20260902215517 93 190 1.0 3.0 0.00 0.00 0.00 55 1013.9
20260902215017 93 122 0.0 3.0 0.00 0.00 0.00 58 1014.0
20260902214517 93 175 0.0 2.0 0.00 0.00 0.00 55 1013.9
20260902214017 93 262 0.0 2.0 0.00 0.00 0.00 57 1014.1
20260902213516 93 309 0.0 2.0 0.00 0.00 0.00 56 1014.0
20260902213015 93 140 0.0 3.0 0.00 0.00 0.00 55 1014.0
20260902212515 93 269 0.0 3.0 0.00 0.00 0.00 54 1014.0
20260902212017 93 171 0.0 2.0 0.00 0.00 0.00 54 1014.0
20260902211518 93 289 0.0 2.0 0.00 0.00 0.00 55 1014.1
20260902211014 94 355 0.0 3.0 0.00 0.00 0.00 55 1014.1
20260902210517 93 119 0.0 4.0 0.00 0.00 0.00 53 1014.1
20260902210013 94 284 0.0 4.0 0.00 0.00 0.00 56 1014.1
20260902205512 94 209 1.0 4.0 0.00 0.00 0.00 53 1014.1
20260902205013 94 190 1.0 5.0 0.00 0.00 0.00 54 1014.1
20260902204524 94 46 1.0 3.0 0.00 0.00 0.00 54 1014.2
20260902204012 94 190 0.0 3.0 0.00 0.00 0.00 53 1014.1
20260902203515 94 188 0.0 3.0 0.00 0.00 0.00 53 1014.2
20260902203012 94 71 0.0 2.0 0.00 0.00 0.00 52 1014.2
20260902202510 94 302 0.0 3.0 0.00 0.00 0.00 52 1014.2
20260902202012 94 302 0.0 3.0 0.00 0.00 0.00 52 1014.2
20260902201509 94 311 0.0 3.0 0.00 0.00 0.00 51 1014.4
20260902201009 94 255 0.0 3.0 0.00 0.00 0.00 51 1014.3
20260902200509 94 157 0.0 5.0 0.00 0.00 0.00 52 1014.4
20260902200009 95 137 0.0 5.0 0.00 0.00 0.00 51 1014.3
20260902195507 94 265 0.0 4.0 0.00 0.00 0.00 50 1014.5
20260902195008 94 308 0.0 3.0 0.00 0.00 0.00 52 1014.5
20260902194507 95 187 0.0 3.0 0.00 0.00 0.00 53 1014.5
20260902194107 95 90 0.0 2.0 0.00 0.00 0.00 53 1014.6
20260902193507 94 164 0.0 4.0 0.00 0.00 0.00 52 1014.7
20260902193006 94 275 0.0 4.0 0.00 0.00 0.00 53 1014.6
20260902192505 95 302 0.0 3.0 0.00 0.00 0.00 52 1014.7
20260902192005 94 198 0.0 4.0 0.00 0.00 0.00 54 1014.8
20260902191505 95 288 0.0 4.0 0.00 0.00 0.00 53 1014.8
20260902191004 95 295 0.0 3.0 0.00 0.00 0.00 52 1014.8
20260902190507 94 94 0.0 3.0 0.00 0.00 0.00 53 1014.8
20260902190006 94 306 1.0 3.0 0.00 0.00 0.00 54 1014.8
20260902185504 95 291 0.0 5.0 0.00 0.00 0.00 55 1014.9
20260902185004 95 242 0.0 5.0 0.00 0.00 0.00 54 1014.8
20260902184503 95 142 0.0 5.0 0.00 0.00 0.00 55 1014.9
20260902184003 95 269 1.0 5.0 0.00 0.00 0.00 53 1014.9
20260902183502 95 292 0.0 3.0 0.00 0.00 0.00 52 1015.0
20260902183004 95 319 0.0 2.0 0.00 0.00 0.00 54 1015.0
20260902182501 95 303 0.0 3.0 0.00 0.00 0.00 55 1015.1
20260902182100 95 9 0.0 6.0 0.00 0.00 0.00 54 1015.3
20260902182001 95 248 0.0 6.0 0.00 0.00 0.00 54 1015.3
20260902181612 95 20 0.0 6.0 0.00 0.00 0.00 56 1015.2
20260902181059 94 124 0.0 4.0 0.00 0.00 0.00 54 1015.2
20260902180558 94 244 0.0 4.0 0.00 0.00 0.00 55 1015.3
20260902180059 94 273 0.0 3.0 0.00 0.00 0.00 57 1015.4
20260902175558 94 144 0.0 3.0 0.00 0.00 0.00 56 1015.5
20260902175059 94 146 0.0 2.0 0.00 0.00 0.00 57 1015.5
20260902174600 94 86 0.0 4.0 0.00 0.00 0.00 57 1015.5
20260902174057 93 297 0.0 4.0 0.00 0.00 0.00 56 1015.6
20260902173556 94 308 0.0 2.0 0.00 0.00 0.00 55 1015.6
20260902173109 94 250 0.0 3.0 0.00 0.00 0.00 58 1015.7
20260902172554 93 171 0.0 3.0 0.00 0.00 0.00 55 1015.8
20260902172053 93 325 0.0 3.0 0.00 0.00 0.00 58 1015.9
20260902171552 93 243 0.0 3.0 0.00 0.00 0.00 59 1015.8
20260902171051 93 288 0.0 3.0 0.00 0.00 0.00 58 1015.8
20260902170549 93 312 0.0 3.0 0.00 0.00 0.00 59 1016.0
20260902170052 93 189 0.0 3.0 0.00 0.00 0.00 61 1016.0
20260902165547 92 169 0.0 4.0 0.00 0.00 0.00 58 1016.0
20260902165046 92 336 0.0 4.0 0.00 0.00 0.00 60 1016.1
20260902164547 92 103 0.0 4.0 0.00 0.00 0.00 60 1016.1
20260902164044 92 129 0.0 3.0 0.00 0.00 0.00 61 1016.3
20260902163542 92 245 0.0 4.0 0.00 0.00 0.00 62 1016.2
20260902163044 91 173 0.0 4.0 0.00 0.00 0.00 65 1016.2
20260902162539 91 239 0.0 7.0 0.00 0.00 0.00 65 1016.3
20260902162037 91 329 0.0 7.0 0.00 0.00 0.00 65 1016.3
20260902161536 90 67 0.0 3.0 0.00 0.00 0.00 65 1016.3
20260902161035 90 134 0.0 2.0 0.00 0.00 0.00 64 1016.3
20260902160533 89 273 0.0 3.0 0.00 0.00 0.00 68 1016.3
20260902160032 89 88 0.0 3.0 0.00 0.00 0.00 66 1016.2
20260902155532 88 184 0.0 2.0 0.00 0.00 0.00 69 1016.3
20260902155030 88 298 0.0 2.0 0.00 0.00 0.00 68 1016.3
20260902154529 87 327 0.0 3.0 0.00 0.00 0.00 67 1016.3
20260902154028 87 112 1.0 3.0 0.00 0.00 0.00 66 1016.3
20260902153526 87 315 0.0 3.0 0.00 0.00 0.00 68 1016.4
20260902153025 87 143 0.0 3.0 0.00 0.00 0.00 68 1016.4
20260902152524 86 138 1.0 3.0 0.00 0.00 0.00 68 1016.4
20260902152126 86 171 0.0 3.0 0.00 0.00 0.00 73 1016.4
20260902151522 86 198 0.0 3.0 0.00 0.00 0.00 71 1016.3
20260902151021 86 196 1.0 3.0 0.00 0.00 0.00 71 1016.4
20260902150519 86 132 0.0 4.0 0.00 0.00 0.00 71 1016.4
20260902150019 85 273 0.0 4.0 0.00 0.00 0.00 73 1016.4
20260902145518 85 305 0.0 3.0 0.00 0.00 0.00 73 1016.5
20260902145018 85 161 0.0 4.0 0.00 0.00 0.00 73 1016.5
20260902144515 84 346 0.0 4.0 0.00 0.00 0.00 73 1016.5
20260902144014 84 153 0.0 2.0 0.00 0.00 0.00 76 1016.5